Ypsilanti, MI

12:11 AM EDT on July 21, 2017 (GMT -0400)
Willow Run

Weather History for KYIP - October, 2012

Change the Weather History Date:

Monday, October 8, 2012

  Actual Average Record
Temperature  
Mean Temperature 46 °F -  
Max Temperature 57 °F 65 °F 89 °F (2007)
Min Temperature 35 °F 44 °F 26 °F (2001)
Degree Days  
Heating Degree Days 19    
Moisture  
Dew Point 31 °F    
Average Humidity 62    
Maximum Humidity 86    
Minimum Humidity 30    
Precipitation  
Precipitation 0.01 in - - ()
Sea Level Pressure  
Sea Level Pressure 30.18 in    
Wind  
Wind Speed 7 mph (SSW)    
Max Wind Speed 15 mph    
Max Gust Speed 21 mph    
Visibility 9 miles    
Events      
Averages and records for this station are not official NWS values.
T = Trace of Precipitation, MM = Missing Value Source: NWS Daily Summary

Daily Weather History Graph

Daily Weather History Graph

Search for Another Location

Airport or City:

Trip Planner

Search our weather history database for the weather conditions in past years. The results will help you decide how hot, cold, wet, or windy it might be!

Date:

Astronomy

Oct. 08, 2012 Rise Set
Actual Time 7:39 AM EDT 7:02 PM EDT
Civil Twilight 7:11 AM EDT 7:30 PM EDT
Nautical Twilight 6:38 AM EDT 8:03 PM EDT
Astronomical Twilight 6:06 AM EDT 8:35 PM EDT
Moon 12:10 AM EDT (10/8) 2:58 PM EDT (10/8)
Length of Visible Light 12h 19m
Length of Day
11h 23m
Waning Gibbous, 46% of the Moon is Illuminated
Oct 8
Waning Gibbous
Oct 15
New
Oct 21
First Quarter
Oct 29
Full
Nov 6
Last Quarter

Hourly Weather History & Observations

Time (EDT) Temp. Windchill Dew Point Humidity Pressure Visibility Wind Dir Wind Speed Gust Speed Precip Events Conditions
12:53 AM 39.9 °F 35.1 °F 35.1 °F 83% 30.16 in 10.0 mi West 6.9 mph - N/A   Scattered Clouds
1:53 AM 36.0 °F 31.1 °F 32.0 °F 86% 30.17 in 10.0 mi WSW 5.8 mph - N/A   Clear
2:53 AM 35.1 °F 29.3 °F 30.9 °F 85% 30.19 in 10.0 mi SW 6.9 mph - N/A   Clear
3:53 AM 36.0 °F 31.1 °F 32.0 °F 86% 30.19 in 9.0 mi SSW 5.8 mph - N/A   Clear
4:53 AM 36.0 °F 33.3 °F 32.0 °F 86% 30.19 in 6.0 mi SSW 3.5 mph - N/A   Clear
5:53 AM 36.0 °F 32.1 °F 32.0 °F 86% 30.19 in 5.0 mi SSW 4.6 mph - N/A   Clear
6:53 AM 35.1 °F 31.0 °F 30.9 °F 85% 30.20 in 9.0 mi South 4.6 mph - N/A   Clear
7:53 AM 36.0 °F 33.3 °F 30.9 °F 82% 30.22 in 4.0 mi South 3.5 mph - N/A   Haze
8:53 AM 37.0 °F - 33.1 °F 86% 30.24 in 5.0 mi Calm Calm - N/A   Clear
9:53 AM 43.0 °F 38.8 °F 37.0 °F 80% 30.23 in 10.0 mi SSW 6.9 mph - 0.01 in   Clear
10:53 AM 48.9 °F - 36.0 °F 61% 30.22 in 10.0 mi SSW 8.1 mph - N/A   Clear
11:53 AM 52.0 °F - 30.0 °F 43% 30.22 in 10.0 mi SW 15.0 mph - N/A   Clear
12:53 PM 54.0 °F - 30.0 °F 40% 30.22 in 10.0 mi SSW 10.4 mph 18.4 mph N/A   Clear
1:53 PM 55.0 °F - 28.9 °F 37% 30.19 in 10.0 mi SSW 6.9 mph 16.1 mph N/A   Clear
2:53 PM 55.9 °F - 27.0 °F 33% 30.16 in 10.0 mi SSW 12.7 mph 20.7 mph N/A   Clear
3:53 PM 57.0 °F - 27.0 °F 32% 30.14 in 10.0 mi SSW 11.5 mph 18.4 mph N/A   Clear
4:53 PM 55.9 °F - 25.0 °F 30% 30.14 in 10.0 mi SW 13.8 mph 18.4 mph N/A   Clear
5:53 PM 55.0 °F - 27.0 °F 34% 30.14 in 10.0 mi SSW 9.2 mph - N/A   Clear
6:53 PM 51.1 °F - 27.0 °F 39% 30.13 in 10.0 mi SSW 8.1 mph - N/A   Clear
7:53 PM 46.0 °F 41.9 °F 28.9 °F 51% 30.13 in 10.0 mi South 8.1 mph - N/A   Clear
8:53 PM 45.0 °F 41.8 °F 30.0 °F 56% 30.14 in 10.0 mi South 5.8 mph - N/A   Clear
10:53 PM 42.1 °F 38.4 °F 30.0 °F 62% 30.15 in 10.0 mi South 5.8 mph - N/A   Clear
11:53 PM 41.0 °F 36.4 °F 30.0 °F 65% 30.14 in 10.0 mi South 6.9 mph - N/A   Clear